User: anonymous   Login
Location: Slidell
(30.2789°N, 89.7378°W)
Time: 12:18:47
(UTC-05:00)
Language:

Cosmos 2360 Rocket - Orbit

View from above orbital plane
View from above orbital plane
View from above satellite
View from above satellite

Ground track
Ground track

The orbit data is extracted from the following two-line orbital elements,

1 25407U 98045B   15240.22034763 -.00000271  00000-0 -11373-3 0  9993
2 25407 071.0137 346.1848 0006198 145.0010 215.1522 14.15720509882918
Epoch (UTC): 28 August 2015 05:17:18
Eccentricity: 0.0006198
inclination: 71.0137°
perigee height: 835 km
apogee height: 844 km
right ascension of ascending node: 346.1848°
argument of perigee: 145.0010°
revolutions per day: 14.15720509
mean anomaly at epoch: 215.1522°
orbit number at epoch: 88291

The dashed part of the orbit path shows where the satellite is in the earth's shadow,  

DLR